This is the latest recevied weather packets stored in our database for station/object ALANSN-2. If no packets are shown the sender has not sent any weather packets the latest 10 day(s).
| Time | Temp. | Humidity | Pressure | Rain* | Wind** | Luminosity | Snow |
|---|---|---|---|---|---|---|---|
| 1787881619 | 13.33° C | 96% | 1028.7 hPa | 0 mm | - | 0 W/m² | - |
| 1787881327 | 13.33° C | 96% | 1028.7 hPa | 0 mm | - | 0 W/m² | - |
| 1787881018 | 13.33° C | 96% | 1028.8 hPa | 0 mm | - | 0 W/m² | - |
| 1787880717 | 13.33° C | 95% | 1028.7 hPa | 0 mm | - | 0 W/m² | - |
| 1787880417 | 13.89° C | 94% | 1028.6 hPa | 0 mm | - | 0 W/m² | - |
| 1787880119 | 13.89° C | 94% | 1028.8 hPa | 0 mm | - | 0 W/m² | - |
| 1787879819 | 13.89° C | 94% | 1028.6 hPa | 0 mm | - | 0 W/m² | - |
| 1787879517 | 13.89° C | 92% | 1028.6 hPa | 0 mm | - | 0 W/m² | - |
| 1787879219 | 14.44° C | 92% | 1028.8 hPa | 0 mm | - | 0 W/m² | - |
| 1787878919 | 14.44° C | 92% | 1028.4 hPa | 0 mm | - | 0 W/m² | - |
| 1787878620 | 14.44° C | 90% | 1028.3 hPa | 0 mm | - | 0 W/m² | - |
| 1787878319 | 15° C | 90% | 1028.3 hPa | 0 mm | - | 0 W/m² | - |
| 1787878020 | 15.56° C | 89% | 1028.4 hPa | 0 mm | - | 0 W/m² | - |
| 1787877719 | 16.11° C | 85% | 1028.2 hPa | 0 mm | - | 0 W/m² | - |
| 1787877421 | 16.11° C | 84% | 1028.2 hPa | 0 mm | - | 0 W/m² | - |
| 1787877120 | 16.67° C | 81% | 1028.1 hPa | 0 mm | - | 0 W/m² | - |
| 1787876820 | 18.33° C | 75% | 1028.3 hPa | 0 mm | - | 2 W/m² | - |
| 1787876520 | 18.33° C | 75% | 1028.1 hPa | 0 mm | - | 2 W/m² | - |
| 1787876220 | 19.44° C | 73% | 1028.2 hPa | 0 mm | - | 4 W/m² | - |
| 1787875919 | 21.11° C | 67% | 1028.3 hPa | 0 mm | - | 10 W/m² | - |
| 1787875620 | 21.11° C | 67% | 1028.5 hPa | 0 mm | - | 10 W/m² | - |
| 1787875319 | 22.22° C | 65% | 1028.4 hPa | 0 mm | - | 13 W/m² | - |
| 1787875020 | 22.22° C | 63% | 1028.3 hPa | 0 mm | - | 20 W/m² | - |
| 1787874720 | 22.22° C | 63% | 1028.3 hPa | 0 mm | - | 20 W/m² | - |
| 1787874420 | 21.67° C | 64% | 1028.5 hPa | 0 mm | - | 23 W/m² | - |
* Rain latest hour (hover to see other rain measurements)
** Current wind speed in m/s (hover to see current wind gust speed)